Time,TemperatureF,DewpointF,PressureIn,WindDirection,WindDirectionDegrees,WindSpeedMPH,WindSpeedGustMPH,Humidity,HourlyPrecipIn,Conditions,Clouds,dailyrainin,SoftwareType,DateUTC
2013-01-29 00:00:00,44.0,42.0,30.09,South,180,15.0,16.0,90,-99.99,,,-99.99,,2013-01-29 08:00:00,
2013-01-29 00:21:00,44.0,42.0,30.09,South,180,15.0,16.0,90,-99.99,,,-99.99,,2013-01-29 08:21:00,
2013-01-29 00:31:00,44.0,42.0,30.09,South,180,15.0,16.0,90,-99.99,,,-99.99,,2013-01-29 08:31:00,
2013-01-29 00:41:00,44.0,42.0,30.09,South,180,15.0,16.0,90,-99.99,,,-99.99,,2013-01-29 08:41:00,
2013-01-29 00:51:00,44.0,42.0,30.09,South,180,15.0,16.0,90,-99.99,,,-99.99,,2013-01-29 08:51:00,
2013-01-29 01:00:00,45.0,42.0,30.09,South,180,18.0,20.0,89,-99.99,,,-99.99,,2013-01-29 09:00:00,
2013-01-29 01:21:00,45.0,42.0,30.09,South,180,18.0,20.0,89,-99.99,,,-99.99,,2013-01-29 09:21:00,
2013-01-29 01:31:00,45.0,42.0,30.09,South,180,18.0,20.0,89,-99.99,,,-99.99,,2013-01-29 09:31:00,
2013-01-29 01:41:00,45.0,42.0,30.09,South,180,18.0,20.0,89,-99.99,,,-99.99,,2013-01-29 09:41:00,
2013-01-29 01:51:00,45.0,42.0,30.09,South,180,18.0,20.0,89,-99.99,,,-99.99,,2013-01-29 09:51:00,
2013-01-29 02:00:00,44.0,43.0,30.11,South,170,15.0,17.0,96,-99.99,,,-99.99,,2013-01-29 10:00:00,
2013-01-29 02:21:00,44.0,43.0,30.11,South,170,15.0,17.0,96,-99.99,,,-99.99,,2013-01-29 10:21:00,
2013-01-29 02:32:00,44.0,43.0,30.11,South,170,15.0,17.0,96,-99.99,,,-99.99,,2013-01-29 10:32:00,
2013-01-29 02:41:00,44.0,43.0,30.11,South,170,15.0,17.0,96,-99.99,,,-99.99,,2013-01-29 10:41:00,
2013-01-29 02:51:00,44.0,43.0,30.11,South,170,15.0,17.0,96,-99.99,,,-99.99,,2013-01-29 10:51:00,
2013-01-29 03:00:00,44.0,44.0,30.12,South,170,16.0,18.0,97,-99.99,,,-99.99,,2013-01-29 11:00:00,
2013-01-29 03:21:00,44.0,44.0,30.12,South,170,16.0,18.0,97,-99.99,,,-99.99,,2013-01-29 11:21:00,
2013-01-29 03:31:00,44.0,44.0,30.12,South,170,16.0,18.0,97,-99.99,,,-99.99,,2013-01-29 11:31:00,
2013-01-29 03:41:00,44.0,44.0,30.12,South,170,16.0,18.0,97,-99.99,,,-99.99,,2013-01-29 11:41:00,
2013-01-29 03:52:00,44.0,44.0,30.12,South,170,16.0,18.0,97,-99.99,,,-99.99,,2013-01-29 11:52:00,
2013-01-29 04:00:00,44.0,43.0,30.15,SSE,160,11.0,13.0,99,-99.99,,,-99.99,,2013-01-29 12:00:00,
2013-01-29 04:21:00,44.0,43.0,30.15,SSE,160,11.0,13.0,99,-99.99,,,-99.99,,2013-01-29 12:21:00,
2013-01-29 04:32:00,44.0,43.0,30.15,SSE,160,11.0,13.0,99,-99.99,,,-99.99,,2013-01-29 12:32:00,
2013-01-29 04:42:00,44.0,43.0,30.15,SSE,160,11.0,13.0,99,-99.99,,,-99.99,,2013-01-29 12:42:00,
2013-01-29 04:52:00,44.0,43.0,30.15,SSE,160,11.0,13.0,99,-99.99,,,-99.99,,2013-01-29 12:52:00,
2013-01-29 05:00:00,44.0,44.0,30.16,SSE,160,11.0,13.0,100,-99.99,,,-99.99,,2013-01-29 13:00:00,
2013-01-29 05:22:00,44.0,44.0,30.16,SSE,160,11.0,13.0,100,-99.99,,,-99.99,,2013-01-29 13:22:00,
2013-01-29 05:31:00,44.0,44.0,30.16,SSE,160,11.0,13.0,100,-99.99,,,-99.99,,2013-01-29 13:31:00,
2013-01-29 05:42:00,44.0,44.0,30.16,SSE,160,11.0,13.0,100,-99.99,,,-99.99,,2013-01-29 13:42:00,
2013-01-29 05:52:00,44.0,44.0,30.16,SSE,160,11.0,13.0,100,-99.99,,,-99.99,,2013-01-29 13:52:00,
2013-01-29 06:00:00,44.0,44.0,30.18,SE,140,9.0,11.0,100,-99.99,,,-99.99,,2013-01-29 14:00:00,
2013-01-29 06:21:00,44.0,44.0,30.18,SE,140,9.0,11.0,100,-99.99,,,-99.99,,2013-01-29 14:21:00,
2013-01-29 06:32:00,44.0,44.0,30.18,SE,140,9.0,11.0,100,-99.99,,,-99.99,,2013-01-29 14:32:00,
2013-01-29 06:42:00,44.0,44.0,30.18,SE,140,9.0,11.0,100,-99.99,,,-99.99,,2013-01-29 14:42:00,
2013-01-29 06:52:00,44.0,44.0,30.18,SE,140,9.0,11.0,100,-99.99,,,-99.99,,2013-01-29 14:52:00,
2013-01-29 07:00:00,44.0,44.0,30.20,SSE,160,7.0,8.0,100,-99.99,,,-99.99,,2013-01-29 15:00:00,
2013-01-29 07:21:00,44.0,44.0,30.20,SSE,160,7.0,8.0,100,-99.99,,,-99.99,,2013-01-29 15:21:00,
2013-01-29 07:32:00,44.0,44.0,30.20,SSE,160,7.0,8.0,100,-99.99,,,-99.99,,2013-01-29 15:32:00,
2013-01-29 07:42:00,44.0,44.0,30.20,SSE,160,7.0,8.0,100,-99.99,,,-99.99,,2013-01-29 15:42:00,
2013-01-29 07:52:00,44.0,44.0,30.20,SSE,160,7.0,8.0,100,-99.99,,,-99.99,,2013-01-29 15:52:00,
2013-01-29 08:00:00,45.0,45.0,30.23,SSE,150,8.0,9.0,100,-99.99,,,-99.99,,2013-01-29 16:00:00,
2013-01-29 08:21:00,45.0,45.0,30.23,SSE,150,8.0,9.0,100,-99.99,,,-99.99,,2013-01-29 16:21:00,
2013-01-29 08:31:00,45.0,45.0,30.23,SSE,150,8.0,9.0,100,-99.99,,,-99.99,,2013-01-29 16:31:00,
2013-01-29 08:42:00,45.0,45.0,30.23,SSE,150,8.0,9.0,100,-99.99,,,-99.99,,2013-01-29 16:42:00,
2013-01-29 08:52:00,45.0,45.0,30.23,SSE,150,8.0,9.0,100,-99.99,,,-99.99,,2013-01-29 16:52:00,
2013-01-29 09:00:00,45.0,45.0,30.25,SSE,150,9.0,10.0,100,-99.99,,,-99.99,,2013-01-29 17:00:00,
2013-01-29 09:21:00,45.0,45.0,30.25,SSE,150,9.0,10.0,100,-99.99,,,-99.99,,2013-01-29 17:21:00,
2013-01-29 09:31:00,45.0,45.0,30.25,SSE,150,9.0,10.0,100,-99.99,,,-99.99,,2013-01-29 17:31:00,
2013-01-29 09:41:00,45.0,45.0,30.25,SSE,150,9.0,10.0,100,-99.99,,,-99.99,,2013-01-29 17:41:00,
2013-01-29 09:52:00,45.0,45.0,30.25,SSE,150,9.0,10.0,100,-99.99,,,-99.99,,2013-01-29 17:52:00,
2013-01-29 10:00:00,46.0,46.0,30.27,SSE,160,9.0,10.0,100,-99.99,,,-99.99,,2013-01-29 18:00:00,
2013-01-29 10:21:00,46.0,46.0,30.27,SSE,160,9.0,10.0,100,-99.99,,,-99.99,,2013-01-29 18:21:00,
2013-01-29 10:33:00,46.0,46.0,30.27,SSE,160,9.0,10.0,100,-99.99,,,-99.99,,2013-01-29 18:33:00,
2013-01-29 10:41:00,46.0,46.0,30.27,SSE,160,9.0,10.0,100,-99.99,,,-99.99,,2013-01-29 18:41:00,
2013-01-29 10:51:00,46.0,46.0,30.27,SSE,160,9.0,10.0,100,-99.99,,,-99.99,,2013-01-29 18:51:00,
2013-01-29 11:00:00,45.0,45.0,30.30,SSE,150,7.0,8.0,100,-99.99,,,-99.99,,2013-01-29 19:00:00,
2013-01-29 11:22:00,45.0,45.0,30.30,SSE,150,7.0,8.0,100,-99.99,,,-99.99,,2013-01-29 19:22:00,
2013-01-29 11:31:00,45.0,45.0,30.30,SSE,150,7.0,8.0,100,-99.99,,,-99.99,,2013-01-29 19:31:00,
2013-01-29 11:41:00,45.0,45.0,30.30,SSE,150,7.0,8.0,100,-99.99,,,-99.99,,2013-01-29 19:41:00,
2013-01-29 11:51:00,45.0,45.0,30.30,SSE,150,7.0,8.0,100,-99.99,,,-99.99,,2013-01-29 19:51:00,
2013-01-29 12:00:00,46.0,46.0,30.31,SSE,150,5.0,6.0,100,-99.99,,,-99.99,,2013-01-29 20:00:00,
2013-01-29 12:21:00,46.0,46.0,30.31,SSE,150,5.0,6.0,100,-99.99,,,-99.99,,2013-01-29 20:21:00,
2013-01-29 12:32:00,46.0,46.0,30.31,SSE,150,5.0,6.0,100,-99.99,,,-99.99,,2013-01-29 20:32:00,
2013-01-29 12:41:00,46.0,46.0,30.31,SSE,150,5.0,6.0,100,-99.99,,,-99.99,,2013-01-29 20:41:00,
2013-01-29 12:52:00,46.0,46.0,30.31,SSE,150,5.0,6.0,100,-99.99,,,-99.99,,2013-01-29 20:52:00,
2013-01-29 13:00:00,47.0,47.0,30.30,South,170,9.0,10.0,100,-99.99,,,-99.99,,2013-01-29 21:00:00,
2013-01-29 13:21:00,47.0,47.0,30.30,South,170,9.0,10.0,100,-99.99,,,-99.99,,2013-01-29 21:21:00,
2013-01-29 13:32:00,47.0,47.0,30.30,South,170,9.0,10.0,100,-99.99,,,-99.99,,2013-01-29 21:32:00,
2013-01-29 13:41:00,47.0,47.0,30.30,South,170,9.0,10.0,100,-99.99,,,-99.99,,2013-01-29 21:41:00,
2013-01-29 13:52:00,47.0,47.0,30.30,South,170,9.0,10.0,100,-99.99,,,-99.99,,2013-01-29 21:52:00,
2013-01-29 14:00:00,47.0,47.0,30.32,South,190,8.0,9.0,100,-99.99,,,-99.99,,2013-01-29 22:00:00,
2013-01-29 14:21:00,47.0,47.0,30.32,South,190,8.0,9.0,100,-99.99,,,-99.99,,2013-01-29 22:21:00,
2013-01-29 14:32:00,47.0,47.0,30.32,South,190,8.0,9.0,100,-99.99,,,-99.99,,2013-01-29 22:32:00,
2013-01-29 14:41:00,47.0,47.0,30.32,South,190,8.0,9.0,100,-99.99,,,-99.99,,2013-01-29 22:41:00,
2013-01-29 14:52:00,47.0,47.0,30.32,South,190,8.0,9.0,100,-99.99,,,-99.99,,2013-01-29 22:52:00,
2013-01-29 15:00:00,47.0,47.0,30.31,South,180,7.0,8.0,100,-99.99,,,-99.99,,2013-01-29 23:00:00,
2013-01-29 15:21:00,47.0,47.0,30.31,South,180,7.0,8.0,100,-99.99,,,-99.99,,2013-01-29 23:21:00,
2013-01-29 15:31:00,47.0,47.0,30.31,South,180,7.0,8.0,100,-99.99,,,-99.99,,2013-01-29 23:31:00,
2013-01-29 15:41:00,47.0,47.0,30.31,South,180,7.0,8.0,100,-99.99,,,-99.99,,2013-01-29 23:41:00,
2013-01-29 15:52:00,47.0,47.0,30.31,South,180,7.0,8.0,100,-99.99,,,-99.99,,2013-01-29 23:52:00,
2013-01-29 16:00:00,47.0,47.0,30.32,South,170,6.0,7.0,100,-99.99,,,-99.99,,2013-01-30 00:00:00,
2013-01-29 16:21:00,47.0,47.0,30.32,South,170,6.0,7.0,100,-99.99,,,-99.99,,2013-01-30 00:21:00,
2013-01-29 16:31:00,47.0,47.0,30.32,South,170,6.0,7.0,100,-99.99,,,-99.99,,2013-01-30 00:31:00,
2013-01-29 16:42:00,47.0,47.0,30.32,South,170,6.0,7.0,100,-99.99,,,-99.99,,2013-01-30 00:42:00,
2013-01-29 16:52:00,47.0,47.0,30.32,South,170,6.0,7.0,100,-99.99,,,-99.99,,2013-01-30 00:52:00,
2013-01-29 17:00:00,46.0,46.0,30.32,South,170,11.0,11.0,100,-99.99,,,-99.99,,2013-01-30 01:00:00,
2013-01-29 17:22:00,46.0,46.0,30.32,South,170,11.0,11.0,100,-99.99,,,-99.99,,2013-01-30 01:22:00,
2013-01-29 17:31:00,46.0,46.0,30.32,South,170,11.0,11.0,100,-99.99,,,-99.99,,2013-01-30 01:31:00,
2013-01-29 17:42:00,46.0,46.0,30.32,South,170,11.0,11.0,100,-99.99,,,-99.99,,2013-01-30 01:42:00,
2013-01-29 17:51:00,46.0,46.0,30.32,South,170,11.0,11.0,100,-99.99,,,-99.99,,2013-01-30 01:51:00,
2013-01-29 18:00:00,48.0,48.0,30.31,South,180,17.0,18.0,100,-99.99,,,-99.99,,2013-01-30 02:00:00,
2013-01-29 18:21:00,48.0,48.0,30.31,South,180,17.0,18.0,100,-99.99,,,-99.99,,2013-01-30 02:21:00,
2013-01-29 18:32:00,48.0,48.0,30.31,South,180,17.0,18.0,100,-99.99,,,-99.99,,2013-01-30 02:32:00,
2013-01-29 18:41:00,48.0,48.0,30.31,South,180,17.0,18.0,100,-99.99,,,-99.99,,2013-01-30 02:41:00,
2013-01-29 18:52:00,48.0,48.0,30.31,South,180,17.0,18.0,100,-99.99,,,-99.99,,2013-01-30 02:52:00,
2013-01-29 19:00:00,48.0,48.0,30.33,South,190,11.0,15.0,100,-99.99,,,-99.99,,2013-01-30 03:00:00,
2013-01-29 19:21:00,48.0,48.0,30.33,South,190,11.0,15.0,100,-99.99,,,-99.99,,2013-01-30 03:21:00,
2013-01-29 19:31:00,48.0,48.0,30.33,South,190,11.0,15.0,100,-99.99,,,-99.99,,2013-01-30 03:31:00,
2013-01-29 19:41:00,48.0,48.0,30.33,South,190,11.0,15.0,100,-99.99,,,-99.99,,2013-01-30 03:41:00,
2013-01-29 19:51:00,48.0,48.0,30.33,South,190,11.0,15.0,100,-99.99,,,-99.99,,2013-01-30 03:51:00,
2013-01-29 20:21:00,47.0,47.0,30.32,SSW,200,20.0,23.0,100,-99.99,,,-99.99,,2013-01-30 04:21:00,
2013-01-29 20:31:00,47.0,47.0,30.32,SSW,200,20.0,23.0,100,-99.99,,,-99.99,,2013-01-30 04:31:00,
2013-01-29 20:41:00,47.0,47.0,30.32,SSW,200,20.0,23.0,100,-99.99,,,-99.99,,2013-01-30 04:41:00,
2013-01-29 20:51:00,47.0,47.0,30.32,SSW,200,20.0,23.0,100,-99.99,,,-99.99,,2013-01-30 04:51:00,
2013-01-29 21:00:00,46.0,46.0,30.32,South,190,18.0,21.0,100,-99.99,,,-99.99,,2013-01-30 05:00:00,
2013-01-29 21:21:00,46.0,46.0,30.32,South,190,18.0,21.0,100,-99.99,,,-99.99,,2013-01-30 05:21:00,
2013-01-29 21:31:00,46.0,46.0,30.32,South,190,18.0,21.0,100,-99.99,,,-99.99,,2013-01-30 05:31:00,
2013-01-29 21:42:00,46.0,46.0,30.32,South,190,18.0,21.0,100,-99.99,,,-99.99,,2013-01-30 05:42:00,
2013-01-29 21:51:00,46.0,46.0,30.32,South,190,18.0,21.0,100,-99.99,,,-99.99,,2013-01-30 05:51:00,
2013-01-29 22:00:00,46.0,46.0,30.32,South,190,22.0,23.0,97,-99.99,,,-99.99,,2013-01-30 06:00:00,
2013-01-29 22:21:00,46.0,46.0,30.32,South,190,22.0,23.0,97,-99.99,,,-99.99,,2013-01-30 06:21:00,
2013-01-29 22:31:00,46.0,46.0,30.32,South,190,22.0,23.0,97,-99.99,,,-99.99,,2013-01-30 06:31:00,
2013-01-29 22:41:00,46.0,46.0,30.32,South,190,22.0,23.0,97,-99.99,,,-99.99,,2013-01-30 06:41:00,
2013-01-29 22:51:00,46.0,46.0,30.32,South,190,22.0,23.0,97,-99.99,,,-99.99,,2013-01-30 06:51:00,
2013-01-29 23:00:00,46.0,46.0,30.32,South,180,23.0,25.0,99,-99.99,,,-99.99,,2013-01-30 07:00:00,
2013-01-29 23:21:00,46.0,46.0,30.32,South,180,23.0,25.0,99,-99.99,,,-99.99,,2013-01-30 07:21:00,
2013-01-29 23:31:00,46.0,46.0,30.32,South,180,23.0,25.0,99,-99.99,,,-99.99,,2013-01-30 07:31:00,
2013-01-29 23:41:00,46.0,46.0,30.32,South,180,23.0,25.0,99,-99.99,,,-99.99,,2013-01-30 07:41:00,
2013-01-29 23:52:00,46.0,46.0,30.32,South,180,23.0,25.0,99,-99.99,,,-99.99,,2013-01-30 07:52:00,